CAPE
218 32 1 0 0 8 20 6 0 21 118 158 144 206 266 218 596 574 561 372 100 47 228 638 1253 1644 1437 1251 1097 1024 991 963 675 670 598 608 548 507 450 349 436 454 448 543 582 622 820 854 937 758 580 585 534 479 566 696 909 1161 1020 796 613 698 879
81 2 6 5 2 7 8 7 0 21 0 97 116 164 152 370 540 390 322 196 94 50 269 507 1115 1326 1333 1312 1074 916 1196 989 756 596 508 412 520 504 572 492 470 565 730 699 594 693 945 1100 1056 698 611 663 536 385 356 662 590 478 616 482 537 848 944
0 0 0 0 0 0 0 0 2 23 18 93 196 143 141 351 325 144 48 58 54 22 133 184 352 873 1263 1246 1069 822 951 914 724 601 537 415 478 474 496 410 364 476 611 708 715 784 994 1066 891 675 688 728 576 488 434 405 834 828 578 344 684 683 652
0 0 0 0 0 0 0 0 34 2 28 53 58 138 136 166 56 2 2 6 18 5 28 24 38 409 1029 1158 1028 940 1002 996 858 729 711 688 693 734 786 756 696 755 807 830 866 883 876 948 976 924 820 764 763 894 821 564 560 733 632 423 440 632 638
0 0 0 0 0 0 0 0 1 0 0 8 44 250 86 17 0 0 0 39 0 0 0 0 12 260 752 800 812 1058 1144 988 808 792 887 906 821 632 509 494 530 613 701 774 884 916 799 688 795 942 805 533 550 630 728 594 482 543 522 474 368 313 557
0 0 0 0 0 0 0 0 0 0 0 9 34 55 18 19 4 13 3 0 2 6 0 0 4 188 376 393 636 818 714 600 540 552 611 636 560 516 502 481 479 536 592 606 659 654 632 661 628 517 522 646 628 596 703 550 408 539 681 630 561 594 703
0 0 0 0 0 0 0 0 0 0 0 20 72 314 136 67 36 22 9 6 0 0 0 0 2 318 429 315 394 365 332 323 206 199 328 494 505 476 427 424 472 507 624 646 573 546 538 468 435 455 540 606 695 761 693 620 536 436 517 564 566 534 566
0 0 0 0 0 0 0 0 0 18 154 359 140 214 408 371 303 49 40 11 3 0 0 0 58 373 355 282 153 106 117 113 78 74 138 304 304 261 259 323 416 541 694 715 576 471 470 499 575 656 636 594 513 607 588 491 537 594 425 468 462 445 459
0 0 0 0 0 0 0 4 6 18 146 385 388 412 480 442 360 198 55 28 16 0 0 7 66 305 325 130 66 60 52 70 40 32 69 90 71 67 106 253 443 601 713 660 548 626 659 698 689 630 548 482 424 442 370 332 370 433 478 533 555 521 500
0 0 0 0 0 0 0 51 46 195 238 374 360 408 481 476 362 146 67 63 26 5 0 36 80 236 203 99 15 0 0 1 5 6 4 11 25 52 108 263 437 667 788 685 595 654 694 758 716 629 551 440 465 361 371 448 378 397 366 421 444 354 308
0 0 0 0 45 26 25 109 91 62 38 148 348 399 512 512 322 288 289 220 187 31 2 48 135 202 138 79 6 0 0 0 13 23 11 10 36 87 172 350 512 745 882 766 704 752 806 790 645 556 439 414 469 486 359 202 215 246 404 415 379 442 386
0 0 0 10 27 16 56 50 29 34 263 364 282 294 415 418 403 393 354 333 241 30 13 59 174 234 88 58 4 0 0 5 19 40 146 86 125 119 205 364 702 849 956 897 967 1042 871 732 672 571 459 472 579 401 341 382 176 201 379 378 306 326 293
0 0 0 0 0 4 20 40 93 230 293 210 423 450 443 432 404 419 435 342 272 28 39 146 163 92 62 74 32 206 174 336 384 351 299 235 179 134 240 352 603 971 1066 1119 1272 1227 1051 834 725 540 455 454 492 532 335 356 254 214 242 332 280 246 198
220 0 16 0 6 34 34 26 38 132 163 493 580 548 514 366 375 415 406 341 241 62 90 268 115 6 24 84 109 250 276 528 601 586 483 353 292 238 238 354 567 811 1015 1224 1294 1270 1106 814 670 430 285 290 384 508 476 354 318 273 212 243 337 365 367
6 2 5 0 0 0 8 11 6 57 155 512 471 428 360 251 117 165 150 105 60 12 1 139 116 21 22 72 94 184 384 732 878 778 555 382 248 187 207 269 336 505 807 1046 1136 1218 1115 828 703 384 224 190 269 316 392 461 425 486 486 374 280 256 283
0 0 0 0 0 0 0 0 3 34 141 225 207 171 132 65 68 82 97 50 11 0 1 230 63 2 16 82 122 240 592 972 981 798 467 260 225 112 159 252 298 452 706 958 1106 1110 975 847 738 434 276 208 192 225 297 392 323 229 217 175 214 218 239
0 0 0 0 0 0 0 0 0 29 59 95 125 110 69 32 58 42 32 26 5 0 0 0 2 2 15 55 82 346 786 1130 1042 681 420 327 469 355 170 242 328 400 522 672 754 766 754 823 744 569 279 201 148 168 230 290 281 223 186 66 35 118 191
0 0 0 0 0 0 0 0 0 1 4 23 48 41 3 35 26 9 0 0 0 0 10 8 4 24 22 34 94 496 894 1196 1194 888 636 543 630 630 424 267 316 288 270 330 419 542 694 696 646 570 249 184 163 183 233 252 94 24 2 5 1 54 224
0 0 0 0 0 0 0 0 0 2 6 6 14 1 5 0 0 0 0 0 0 0 26 39 40 35 65 66 112 458 742 1124 1172 967 797 730 798 766 664 456 325 269 208 191 335 568 486 459 504 505 222 157 222 176 132 124 0 4 30 53 45 62 196
0 0 0 0 0 0 0 0 2 7 4 10 18 10 23 0 0 0 0 2 2 7 8 7 2 13 83 507 454 343 351 611 663 584 589 755 952 926 745 563 378 240 151 264 358 238 192 303 446 444 234 186 247 189 131 188 5 0 6 28 34 74 165
0 0 0 0 0 0 0 0 0 0 20 41 76 99 16 0 34 96 22 2 4 27 1 0 0 0 62 518 258 50 30 14 26 85 408 784 1046 1034 837 614 499 380 253 157 160 181 224 410 488 422 292 221 273 292 151 176 8 6 10 9 32 90 146
0 0 2 0 0 0 0 0 0 8 16 157 466 183 1 13 3 6 0 0 0 0 0 0 0 0 0 106 44 6 6 13 26 95 363 720 1025 1086 936 686 534 358 212 227 227 347 454 618 316 402 247 172 300 297 127 90 0 3 5 9 23 109 147
0 0 0 0 0 0 0 0 0 0 280 188 43 44 62 33 120 93 0 0 0 2 0 0 3 4 12 226 10 0 0 0 42 170 340 622 922 1051 985 748 544 329 220 172 202 363 630 606 250 368 203 178 233 210 251 116 24 0 0 1 14 102 140
0 0 0 0 0 0 1 2 0 78 271 38 18 60 82 155 429 348 388 19 0 0 0 2 2 1 49 68 3 0 0 0 70 113 195 507 824 1015 1013 792 491 278 186 156 157 229 534 536 290 350 192 210 157 189 271 214 70 0 0 0 8 36 114
0 0 0 0 0 0 1 2 0 289 416 12 87 64 84 134 308 374 458 390 330 161 59 22 28 43 226 189 0 0 1 26 42 67 204 601 863 1086 1040 755 498 300 99 42 64 190 454 505 412 365 168 178 214 256 248 278 123 25 0 0 5 11 87
0 0 0 0 0 0 1 59 572 172 19 38 36 40 170 319 340 465 482 496 536 570 556 493 411 387 119 8 1 44 145 31 106 150 640 765 1046 1192 1075 852 421 38 28 30 130 200 343 413 360 393 263 272 208 222 273 418 151 82 26 0 2 2 8
0 0 0 0 18 482 5 1 3 0 0 0 10 146 384 448 502 515 886 1036 966 904 807 740 672 582 554 411 248 56 17 28 66 438 928 1064 1230 1342 1041 471 58 36 53 153 224 238 254 851 672 634 364 278 285 233 332 517 228 156 62 18 0 2 4
0 0 0 74 656 261 0 0 0 1 15 8 84 309 333 326 92 312 306 709 609 493 443 529 804 794 550 356 92 441 139 131 161 664 1040 1388 1482 1220 718 210 68 154 238 259 339 249 16 202 734 841 520 310 344 228 109 388 304 246 106 62 26 5 0
0 0 25 256 154 377 2 0 0 1 4 21 64 210 286 23 110 281 554 505 459 464 576 852 1042 1025 595 553 554 500 390 54 160 351 747 1180 1120 818 477 360 354 191 319 328 373 259 9 12 18 44 128 473 276 324 167 188 224 166 148 98 72 50 37
0 0 0 0 0 36 110 0 0 0 0 0 8 4 44 95 258 446 628 425 376 445 624 772 958 901 759 685 629 308 0 98 263 3 0 25 402 577 450 385 361 175 285 268 391 151 17 0 0 0 1 218 401 240 273 342 247 142 127 100 102 90 107
0 0 0 0 0 220 134 0 0 0 0 0 0 18 68 270 320 639 911 672 624 703 816 996 1128 1112 771 686 302 4 25 58 21 8 0 0 29 275 315 244 194 77 26 91 206 86 35 0 0 0 0 182 346 151 232 499 280 160 121 120 110 173 125
0 0 0 0 10 298 25 4 3 2 4 17 24 164 224 277 292 312 438 570 688 721 632 646 864 1048 727 113 20 0 18 50 78 0 0 0 5 52 80 157 66 1 0 6 4 64 49 11 1 0 0 19 222 191 236 359 170 209 332 430 424 511 228
0 0 0 0 6 341 1 1 6 34 92 194 213 396 504 476 418 426 600 974 922 352 250 655 1032 1056 446 12 0 0 99 480 176 142 0 0 0 0 0 0 0 0 0 0 0 3 14 5 12 0 0 14 47 254 304 286 280 420 457 444 495 759 497
0 0 0 0 82 170 0 0 2 96 223 266 346 539 728 625 590 681 784 716 106 44 216 849 990 548 62 0 2 161 50 56 1074 394 0 0 0 0 0 0 0 0 0 0 0 3 2 0 0 0 0 0 30 211 303 263 360 314 268 293 378 540 665
3 23 45 63 241 135 4 10 51 233 272 322 306 444 552 629 664 691 470 531 305 38 566 746 1050 367 0 6 0 92 670 0 8 6 0 0 0 0 0 0 2 0 0 0 1 0 0 0 0 0 0 0 11 248 350 353 170 30 0 0 10 10 193
78 119 120 178 228 234 260 253 221 191 135 286 428 438 610 686 634 547 646 548 90 129 168 297 279 218 23 11 0 15 472 33 2 0 0 4 0 0 0 456 2 0 0 0 0 0 0 0 0 0 0 0 0 24 68 24 8 0 0 0 0 0 0
86 94 94 215 242 264 232 312 346 347 353 355 325 451 657 750 795 848 656 419 78 202 196 353 432 158 0 0 0 38 47 6 2 4 18 2 0 0 6 4 0 0 0 0 0 0 0 0 0 0 0 0 0 6 0 0 0 0 0 0 0 0 0
69 92 107 152 217 260 317 312 256 330 305 275 258 486 589 642 742 679 512 446 226 464 95 90 236 198 120 12 0 434 1556 34 72 170 28 0 0 1 21 0 0 0 0 0 0 0 0 0 0 0 0 0 0 0 0 0 0 0 0 0 0 0 0
Wind_Speed
28 nan nan nan nan nan nan nan nan nan 32 34 35 36 35 35 36 37 36 35 nan nan 32 33 35 37 38 37 37 38 39 44 46 46 44 43 43 43 43 42 41 37 35 33 31 32 33 39 42 38 33 36 34 30 28 31 34 33 35 35 33 31 30
nan nan nan nan nan nan nan nan nan nan nan nan 36 36 35 37 40 39 37 37 nan nan 33 33 34 35 36 37 37 38 42 46 47 47 45 45 44 46 47 42 39 39 37 35 34 33 34 38 41 39 35 38 33 29 29 30 33 34 38 37 32 32 35
nan nan nan nan nan nan nan nan nan nan nan nan 35 36 37 40 41 41 nan nan nan nan 35 34 33 34 35 36 37 36 42 45 45 42 40 43 45 44 43 39 36 37 36 36 35 34 36 34 34 34 33 29 30 30 30 31 32 32 35 37 37 35 34
nan nan nan nan nan nan nan nan nan nan nan nan nan 37 39 41 nan nan nan nan nan nan nan nan nan 34 35 36 36 37 38 41 42 39 40 40 39 41 40 39 37 35 34 34 35 36 35 35 33 33 31 29 30 30 29 29 31 31 35 36 36 37 34
nan nan nan nan nan nan nan nan nan nan nan nan nan 38 nan nan nan nan nan nan nan nan nan nan nan 38 38 38 38 38 38 40 39 40 38 38 38 39 40 37 34 32 31 30 31 33 34 33 32 32 34 32 28 28 28 30 32 32 32 35 33 32 33
nan nan nan nan nan nan nan nan nan nan nan nan nan nan nan nan nan nan nan nan nan nan nan nan nan 39 40 40 40 39 39 39 39 38 38 37 36 35 36 36 34 31 30 30 31 32 33 33 32 32 32 32 32 28 28 30 32 32 33 36 34 34 34
nan nan nan nan nan nan nan nan nan nan nan nan nan 44 42 nan nan nan nan nan nan nan nan nan nan 40 40 40 40 39 39 37 36 35 35 35 34 32 32 32 31 32 32 32 31 31 31 32 31 31 30 29 28 28 27 29 29 31 33 35 34 33 33
nan nan nan nan nan nan nan nan nan nan 41 42 43 44 43 43 44 nan nan nan nan nan nan nan nan 39 38 39 38 37 37 37 nan nan 33 32 31 31 30 30 30 32 33 32 30 30 29 29 29 30 29 28 27 26 26 25 25 26 29 31 31 30 33
nan nan nan nan nan nan nan nan nan nan 44 43 44 44 44 44 45 45 nan nan nan nan nan nan nan 38 38 37 nan nan nan nan nan nan nan nan nan nan 29 29 30 31 31 30 28 28 29 28 28 29 28 28 27 24 23 22 22 23 26 27 28 28 28
nan nan nan nan nan nan nan nan nan 42 43 44 44 44 44 45 45 44 nan nan nan nan nan nan nan 38 37 nan nan nan nan nan nan nan nan nan nan nan 29 29 29 28 28 26 26 26 27 29 28 28 26 25 24 23 20 20 20 21 25 26 25 23 24
nan nan nan nan nan nan nan 39 nan nan nan 43 44 43 44 44 43 43 43 43 41 nan nan nan 41 39 37 nan nan nan nan nan nan nan nan nan nan nan 28 27 26 25 23 22 22 23 25 26 25 24 24 22 21 21 20 21 23 21 21 25 25 25 25
nan nan nan nan nan nan nan nan nan nan 41 43 43 43 43 43 44 43 43 42 42 nan nan nan 41 40 nan nan nan nan nan nan nan nan 28 nan 28 26 24 23 23 20 19 20 19 19 21 21 21 20 20 20 19 20 17 19 21 21 23 24 26 26 25
nan nan nan nan nan nan nan nan nan 43 43 42 42 43 44 45 44 44 44 43 41 nan nan 43 41 nan nan nan nan 31 28 28 27 28 27 28 26 24 21 20 20 18 17 18 19 18 18 17 19 20 20 19 20 20 19 18 19 19 19 23 25 24 23
35 nan nan nan nan nan nan nan nan 45 43 44 44 44 45 44 45 45 45 44 42 nan nan 43 41 nan nan nan 31 30 28 28 29 28 27 27 25 22 19 19 19 17 16 16 15 17 19 16 17 20 19 18 19 20 20 18 14 14 16 20 22 23 22
nan nan nan nan nan nan nan nan nan nan 43 44 44 45 44 44 44 45 45 45 nan nan nan 42 41 nan nan nan nan 29 29 29 29 28 26 24 24 21 19 18 16 14 13 13 12 14 18 16 15 16 14 15 17 20 20 19 16 17 20 22 21 21 21
nan nan nan nan nan nan nan nan nan nan 45 44 44 44 45 nan nan nan nan nan nan nan nan 41 nan nan nan nan 31 29 29 29 29 27 24 23 23 21 19 17 13 12 12 12 11 13 15 14 13 12 10 11 14 17 20 20 21 21 19 18 21 20 19
nan nan nan nan nan nan nan nan nan nan nan nan 45 45 nan nan nan nan nan nan nan nan nan nan nan nan nan nan nan 29 28 29 29 27 23 23 23 22 19 16 13 11 12 12 12 12 13 12 11 10 9 9 11 13 17 18 21 22 16 nan nan 18 16
nan nan nan nan nan nan nan nan nan nan nan nan nan nan nan nan nan nan nan nan nan nan nan nan nan nan nan nan nan 28 28 28 27 25 22 22 22 21 19 17 13 10 11 11 10 11 10 9 10 9 9 9 11 13 15 17 nan nan nan nan nan nan 16
nan nan nan nan nan nan nan nan nan nan nan nan nan nan nan nan nan nan nan nan nan nan nan nan nan nan nan nan 29 27 27 26 25 23 22 20 20 20 19 17 13 9 10 9 9 11 10 8 9 9 10 11 13 15 16 16 nan nan nan nan nan nan 19
nan nan nan nan nan nan nan nan nan nan nan nan nan nan nan nan nan nan nan nan nan nan nan nan nan nan nan 29 27 26 25 24 24 23 21 20 19 18 18 18 14 11 12 11 9 10 9 7 8 9 10 11 12 14 14 15 nan nan nan nan nan nan 22
nan nan nan nan nan nan nan nan nan nan nan nan nan nan nan nan nan nan nan nan nan nan nan nan nan nan nan 29 26 nan nan nan nan nan 21 20 20 17 16 17 14 9 10 10 9 10 9 7 8 9 9 9 11 13 14 14 nan nan nan nan nan nan 23
nan nan nan nan nan nan nan nan nan nan nan 45 46 46 nan nan nan nan nan nan nan nan nan nan nan nan nan 27 nan nan nan nan nan nan 21 20 20 18 15 14 13 10 8 8 8 11 12 10 10 9 9 9 10 11 14 nan nan nan nan nan nan 25 19
nan nan nan nan nan nan nan nan nan nan 46 45 nan nan nan nan 46 nan nan nan nan nan nan nan nan nan nan 24 nan nan nan nan nan 21 20 20 20 18 15 14 11 10 10 8 7 9 12 12 9 8 7 8 9 9 11 14 nan nan nan nan nan 23 18
nan nan nan nan nan nan nan nan nan nan 45 nan nan nan nan 44 43 42 41 nan nan nan nan nan nan nan nan nan nan nan nan nan nan 20 19 19 18 18 17 15 15 13 11 10 8 9 13 13 10 7 4 6 6 5 8 12 nan nan nan nan nan nan 22
nan nan nan nan nan nan nan nan nan 44 42 nan nan nan nan 44 43 42 41 39 36 34 nan nan nan nan 28 26 nan nan nan nan nan nan 20 19 17 18 17 16 14 11 nan nan nan 9 11 11 9 7 4 2 3 1 5 9 14 nan nan nan nan nan nan
nan nan nan nan nan nan nan nan 45 44 nan nan nan nan 44 43 42 41 40 37 35 34 32 30 29 29 30 nan nan nan 21 nan 21 20 20 19 17 15 16 16 14 nan nan nan 9 6 7 10 9 6 3 1 1 1 1 5 10 nan nan nan nan nan nan
nan nan nan nan nan 47 nan nan nan nan nan nan nan 43 43 42 41 40 39 37 37 35 34 32 29 29 29 28 25 nan nan nan nan 20 18 19 18 16 14 14 nan nan nan 6 6 7 6 8 9 7 5 3 2 2 5 2 7 12 nan nan nan nan nan
nan nan nan nan 50 49 nan nan nan nan nan nan nan 42 41 41 nan 39 38 37 36 35 35 33 30 29 28 26 nan 22 22 22 20 20 19 18 18 16 12 11 nan 11 10 7 7 8 nan 6 7 9 8 6 3 1 3 5 4 9 17 nan nan nan nan
nan nan nan 47 47 46 nan nan nan nan nan nan nan 39 39 nan 41 39 39 38 35 33 33 33 32 29 26 24 23 21 21 nan 21 20 18 17 17 17 13 11 10 9 10 8 8 9 nan nan nan nan 9 10 6 2 2 1 3 5 12 nan nan nan nan
nan nan nan nan nan nan 48 nan nan nan nan nan nan nan nan nan 41 40 39 36 33 30 28 29 31 28 24 23 20 18 nan nan 19 nan nan nan 17 16 15 12 11 10 10 10 9 8 nan nan nan nan nan 9 10 6 4 5 2 1 6 nan 21 nan 24
nan nan nan nan nan 48 48 nan nan nan nan nan nan nan nan 41 42 40 37 33 31 28 25 27 30 28 25 21 18 nan nan nan nan nan nan nan nan 17 15 13 12 nan nan nan 10 nan nan nan nan nan nan 10 11 10 7 5 6 4 1 3 11 21 26
nan nan nan nan nan 48 nan nan nan nan nan nan nan 38 39 40 42 39 36 32 28 25 22 23 26 27 25 21 nan nan nan nan nan nan nan nan nan nan nan 15 nan nan nan nan nan nan nan nan nan nan nan nan 10 11 9 7 4 5 4 1 2 9 19
nan nan nan nan nan 50 nan nan nan nan nan 38 36 38 38 38 39 37 33 30 26 23 23 22 23 25 23 nan nan nan nan 20 19 19 nan nan nan nan nan nan nan nan nan nan nan nan nan nan nan nan nan nan nan 10 11 8 6 5 4 4 3 3 8
nan nan nan nan nan 49 nan nan nan nan 38 35 34 37 39 38 35 35 34 29 25 nan 22 23 23 23 nan nan nan 17 nan nan 17 18 nan nan nan nan nan nan nan nan nan nan nan nan nan nan nan nan nan nan nan 8 10 9 8 6 5 5 5 4 5
nan nan nan nan 48 50 nan nan nan 38 37 34 34 36 38 37 35 35 34 28 23 nan 25 25 21 22 nan nan nan nan 17 nan nan nan nan nan nan nan nan nan nan nan nan nan nan nan nan nan nan nan nan nan nan 7 8 9 9 nan nan nan nan nan 5
nan 48 47 47 48 47 43 39 38 37 36 34 35 37 39 39 36 34 34 29 nan 24 23 21 20 20 nan nan nan nan 17 nan nan nan nan nan nan nan nan 12 nan nan nan nan nan nan nan nan nan nan nan nan nan nan nan nan nan nan nan nan nan nan nan
nan nan nan 47 46 42 38 35 36 37 36 36 37 38 40 41 38 35 33 30 nan 24 23 23 21 18 nan nan nan nan nan nan nan nan nan nan nan nan nan nan nan nan nan nan nan nan nan nan nan nan nan nan nan nan nan nan nan nan nan nan nan nan nan
nan nan 48 47 45 43 40 39 40 40 38 36 36 35 37 41 40 35 30 27 25 25 nan nan 24 21 18 nan nan 19 21 nan nan 19 nan nan nan nan nan nan nan nan nan nan nan nan nan nan nan nan nan nan nan nan nan nan nan nan nan nan nan nan nan
Wind_Direction
328 nan nan nan nan nan nan nan nan nan 316 321 324 325 325 321 319 316 314 312 nan nan 301 300 301 300 300 300 299 300 299 293 294 298 300 300 299 295 293 290 287 284 283 282 280 283 285 283 278 276 272 267 266 268 264 263 266 268 264 259 254 252 256
nan nan nan nan nan nan nan nan nan nan nan nan 324 325 323 320 318 316 316 314 nan nan 306 305 302 301 300 300 298 296 296 298 300 301 301 297 295 296 297 297 293 290 290 293 290 287 285 285 286 283 280 279 281 275 270 266 269 267 265 264 263 263 261
nan nan nan nan nan nan nan nan nan nan nan nan 324 325 322 320 319 318 nan nan nan nan 309 306 304 304 302 302 300 298 299 300 301 302 301 299 298 297 297 297 295 292 291 289 288 286 282 280 279 279 277 273 271 270 268 267 266 265 263 263 263 266 265
nan nan nan nan nan nan nan nan nan nan nan nan nan 324 321 319 nan nan nan nan nan nan nan nan nan 306 306 304 303 303 300 299 300 300 299 298 294 293 293 294 295 292 289 288 287 284 279 275 273 272 272 270 265 262 261 261 260 259 261 262 263 268 268
nan nan nan nan nan nan nan nan nan nan nan nan nan 323 nan nan nan nan nan nan nan nan nan nan nan 309 308 306 305 305 303 301 300 299 298 296 294 291 290 290 290 288 285 280 277 275 273 271 268 265 266 270 267 263 261 260 260 259 258 260 261 264 265
nan nan nan nan nan nan nan nan nan nan nan nan nan nan nan nan nan nan nan nan nan nan nan nan nan 306 305 304 305 304 304 302 302 302 302 300 297 292 291 293 292 288 282 277 272 270 268 267 264 261 258 261 267 267 260 257 257 259 260 260 261 261 260
nan nan nan nan nan nan nan nan nan nan nan nan nan 322 320 nan nan nan nan nan nan nan nan nan nan 307 305 305 304 303 302 302 301 301 302 301 299 296 292 290 286 283 281 275 271 268 264 262 260 257 256 256 258 259 253 249 252 258 260 259 259 259 258
nan nan nan nan nan nan nan nan nan nan 326 324 321 320 319 319 317 nan nan nan nan nan nan nan nan 308 307 306 305 304 304 304 nan nan 303 301 300 297 294 288 282 279 277 277 274 273 270 265 261 259 256 257 261 263 260 255 254 257 258 256 257 257 256
nan nan nan nan nan nan nan nan nan nan 326 324 323 322 321 320 318 317 nan nan nan nan nan nan nan 313 310 308 nan nan nan nan nan nan nan nan nan nan 292 288 283 281 280 277 274 275 275 269 265 263 262 264 265 265 261 258 258 256 255 256 257 257 257
nan nan nan nan nan nan nan nan nan 324 323 322 321 321 321 320 319 317 nan nan nan nan nan nan nan 315 312 nan nan nan nan nan nan nan nan nan nan nan 296 293 289 288 286 281 277 276 273 270 263 263 268 265 261 261 261 258 259 256 257 259 262 261 258
nan nan nan nan nan nan nan 325 nan nan nan 323 322 321 320 319 319 317 314 314 314 nan nan nan 318 318 315 nan nan nan nan nan nan nan nan nan nan nan 302 296 293 292 289 284 283 283 276 267 262 260 261 260 257 260 263 264 253 247 253 256 257 256 257
nan nan nan nan nan nan nan nan nan nan 321 321 320 319 318 319 320 318 315 315 315 nan nan nan 320 321 nan nan nan nan nan nan nan nan 307 nan 307 309 308 302 297 292 290 287 287 291 287 268 260 262 258 257 250 255 258 262 261 259 257 257 255 252 252
nan nan nan nan nan nan nan nan nan 320 319 319 319 319 318 319 320 318 316 315 316 nan nan 320 321 nan nan nan nan 319 319 318 318 315 313 313 314 315 315 312 307 299 297 294 288 293 301 282 260 257 254 250 247 241 249 250 252 253 258 259 259 257 254
317 nan nan nan nan nan nan nan nan 320 319 318 319 318 317 318 319 318 316 315 316 nan nan 321 322 nan nan nan 319 321 324 325 324 321 321 320 318 319 320 317 311 301 302 306 295 298 314 302 265 253 252 247 243 238 246 259 261 264 267 261 258 258 260
nan nan nan nan nan nan nan nan nan nan 319 319 319 317 317 317 317 316 314 315 nan nan nan 323 324 nan nan nan nan 324 327 329 327 325 325 323 323 324 321 316 310 300 301 310 306 305 314 306 275 252 246 245 242 239 241 248 257 269 265 258 255 259 259
nan nan nan nan nan nan nan nan nan nan 319 320 318 317 316 nan nan nan nan nan nan nan nan 323 nan nan nan nan 323 326 329 331 329 327 327 326 329 331 328 320 308 299 299 303 306 306 307 300 275 258 252 245 242 243 241 246 256 253 244 255 263 261 258
nan nan nan nan nan nan nan nan nan nan nan nan 318 317 nan nan nan nan nan nan nan nan nan nan nan nan nan nan nan 328 330 330 329 328 329 328 330 331 331 324 311 304 304 305 309 309 303 292 269 259 259 256 251 247 249 249 248 233 234 nan nan 237 246
nan nan nan nan nan nan nan nan nan nan nan nan nan nan nan nan nan nan nan nan nan nan nan nan nan nan nan nan nan 327 328 331 330 329 330 328 327 328 331 326 313 316 323 320 321 319 308 287 277 273 273 269 257 250 249 246 nan nan nan nan nan nan 233
nan nan nan nan nan nan nan nan nan nan nan nan nan nan nan nan nan nan nan nan nan nan nan nan nan nan nan nan 323 325 327 329 331 332 332 331 328 328 331 327 316 317 333 340 334 326 316 296 278 277 279 275 259 249 248 250 nan nan nan nan nan nan 213
nan nan nan nan nan nan nan nan nan nan nan nan nan nan nan nan nan nan nan nan nan nan nan nan nan nan nan 319 321 324 324 326 329 332 334 332 329 329 333 333 325 312 321 334 332 321 315 300 277 277 278 274 265 255 253 254 nan nan nan nan nan nan 212
nan nan nan nan nan nan nan nan nan nan nan nan nan nan nan nan nan nan nan nan nan nan nan nan nan nan nan 314 318 nan nan nan nan nan 332 332 332 331 335 339 338 320 309 317 322 321 326 316 279 279 284 281 268 259 252 255 nan nan nan nan nan nan 214
nan nan nan nan nan nan nan nan nan nan nan 316 317 319 nan nan nan nan nan nan nan nan nan nan nan nan nan 309 nan nan nan nan nan nan 329 333 333 333 334 335 337 332 322 322 323 328 334 324 293 283 284 285 269 257 250 nan nan nan nan nan nan 198 221
nan nan nan nan nan nan nan nan nan nan 312 315 nan nan nan nan 320 nan nan nan nan nan nan nan nan nan nan 313 nan nan nan nan nan 320 325 330 333 335 333 331 332 329 328 334 339 337 337 330 309 288 287 284 272 256 246 236 nan nan nan nan nan 207 215
nan nan nan nan nan nan nan nan nan nan 314 nan nan nan nan 319 320 318 318 nan nan nan nan nan nan nan nan nan nan nan nan nan nan 316 319 324 333 337 335 332 333 336 334 339 355 356 342 330 316 294 285 284 278 260 242 231 nan nan nan nan nan nan 201
nan nan nan nan nan nan nan nan nan 314 313 nan nan nan nan 320 320 320 321 320 320 323 nan nan nan nan 313 315 nan nan nan nan nan nan 313 319 331 337 336 331 331 337 nan nan nan 357 346 326 320 306 284 290 309 238 238 235 224 nan nan nan nan nan nan
nan nan nan nan nan nan nan nan 310 310 nan nan nan nan 317 319 319 321 320 319 317 320 326 327 321 314 309 nan nan nan 311 nan 308 308 310 316 324 334 337 333 325 nan nan nan 314 330 335 327 326 326 320 268 240 28 91 228 226 nan nan nan nan nan nan
nan nan nan nan nan 316 nan nan nan nan nan nan nan 315 316 315 316 319 320 319 317 323 328 326 321 315 311 307 303 nan nan nan nan 306 308 313 320 330 334 330 nan nan nan 281 277 289 292 329 346 343 343 306 247 65 79 116 214 227 nan nan nan nan nan
nan nan nan nan 315 313 nan nan nan nan nan nan nan 315 314 313 nan 317 318 317 320 327 327 323 321 316 311 306 nan 297 303 306 304 304 307 308 311 316 323 326 nan 320 302 280 272 278 nan 294 341 350 345 339 300 285 70 92 176 202 229 nan nan nan nan
nan nan nan 308 309 310 nan nan nan nan nan nan nan 313 313 nan 314 317 316 317 324 326 324 322 318 314 309 304 297 295 298 nan 303 301 301 305 308 310 316 318 314 317 304 287 270 273 nan nan nan nan 325 340 339 315 261 77 84 187 205 nan nan nan nan
nan nan nan nan nan nan 308 nan nan nan nan nan nan nan nan nan 316 316 316 322 326 323 322 316 312 309 306 302 300 297 nan nan 297 nan nan nan 306 307 309 308 308 311 310 299 291 288 nan nan nan nan nan 322 338 339 298 274 283 164 189 nan 209 nan 216
nan nan nan nan nan 308 305 nan nan nan nan nan nan nan nan 313 316 317 317 321 322 322 320 313 308 309 305 302 301 nan nan nan nan nan nan nan nan 306 305 304 300 nan nan nan 297 nan nan nan nan nan nan 311 325 337 332 293 270 258 219 189 211 215 213
nan nan nan nan nan 304 nan nan nan nan nan nan nan 315 313 314 317 318 318 318 318 316 314 311 305 304 303 305 nan nan nan nan nan nan nan nan nan nan nan 311 nan nan nan nan nan nan nan nan nan nan nan nan 320 325 327 329 298 269 263 278 221 224 220
nan nan nan nan nan 303 nan nan nan nan nan 316 313 313 313 316 319 319 314 314 316 315 313 310 303 300 300 nan nan nan nan 292 298 300 nan nan nan nan nan nan nan nan nan nan nan nan nan nan nan nan nan nan nan 318 318 319 323 309 291 264 226 235 228
nan nan nan nan nan 302 nan nan nan nan 310 309 309 310 313 315 318 314 311 314 313 nan 301 305 301 298 nan nan nan 289 nan nan 302 304 nan nan nan nan nan nan nan nan nan nan nan nan nan nan nan nan nan nan nan 314 312 320 319 320 324 290 259 237 231
nan nan nan nan 300 304 nan nan nan 310 307 311 311 310 311 313 314 313 311 314 309 nan 302 301 299 298 nan nan nan nan 289 nan nan nan nan nan nan nan nan nan nan nan nan nan nan nan nan nan nan nan nan nan nan 312 313 304 314 nan nan nan nan nan 237
nan 298 299 301 302 305 305 306 306 306 308 312 310 308 308 310 311 310 309 311 nan 305 303 298 294 296 nan nan nan nan 295 nan nan nan nan nan nan nan nan 301 nan nan nan nan nan nan nan nan nan nan nan nan nan nan nan nan nan nan nan nan nan nan nan
nan nan nan 299 299 301 304 303 300 301 306 310 306 304 305 308 309 306 303 306 nan 304 303 300 294 288 nan nan nan nan nan nan nan nan nan nan nan nan nan nan nan nan nan nan nan nan nan nan nan nan nan nan nan nan nan nan nan nan nan nan nan nan nan
nan nan 298 298 300 300 299 298 298 301 306 305 301 300 302 304 301 298 295 298 299 300 nan nan 296 295 295 nan nan 292 296 nan nan 293 nan nan nan nan nan nan nan nan nan nan nan nan nan nan nan nan nan nan nan nan nan nan nan nan nan nan nan nan nan